Location: Kumla
(59.1265°N, 15.1401°E)
Time: 14:44:53
(UTC+01:00)

Vanguard 2 Rocket - Pass Details

Date: 03 December 2023
Orbit: 554 x 3309 km, 32.9° (Epoch: 26 February)

Event Time Altitude Azimuth Distance (km) Brightness Sun altitude
Rises 16:21:31 0° 233° (SW) 6,997 13.7 -8.4°
Reaches altitude 10° 16:27:07 10° 223° (SW) 6,167 12.5 -9.0°
Maximum altitude 16:41:58 28° 175° (S) 4,837 10.8 -10.7°
Drops below altitude 10° 16:55:23 10° 126° (SE) 5,567 10.6 -12.3°
Sets 17:00:04 0° 116° (ESE) 6,234 10.8 -12.8°
